Showing default

RADUGA 25, 20499

Orbit data source: Space-Track

RADUGA 25, 20499 is a payload satellite owned by UNKS (CIS) in GEO that was launched on Thu, 15 Feb 1990 UTC via a PROTON-K/DM-2 launch vehicle from the Tyuratam Missile And Space Complex (TTMTR). Payload-class satellites include a variety of spacecraft equipped with specific instruments for various scientific and technological missions. These include communications satellites like Starlink; space stations such as the ISS; scientific satellites like the Hubble; Earth observation satellites from companies like Planet Labs, Umbra, and HawkEye 360; GPS; miniature CubeSats for education and research; and military/defense satellites.

Loading next visibility...
Identifier
20499, 1990-016A
Orbit
GEO
Country
Flag of CISCIS
Related business
Manufacturer
NPO PM
Mission
Non-operational Defense Communications
Bus & Motor
RADUGA, Unknown motor
Mass
1,965 kg wet, ~1,800 kg dry
Launch date (UTC)
1990-02-15 (36 years ago)
Launch vehicle
PROTON-K/DM-2
Launch site
Tyuratam Missile And Space Complex (TTMTR)
Object type
Payload
Rocket body
Debris
Shape & HBR
Cyl + 2 Pan, 4.8 m
Radar Cross Section
16.975 m², Large (>1 m²)

Expand to show TLE details & history
Last TLE update: 22 hours ago

TLE from 22 hours ago
0 RADUGA 25
1 20499U 90016A   25261.00497990 -.00000251  00000-0  00000-0 0  9993
2 20499  12.6081 336.5602 0006218 209.2934 142.3113  1.00267922130171
Epoch: 2025-09-18T00:07Z
TLE epoch observation values (Epoch: 2025-09-18T00:07:10.263Z)
Latitude
-1.82351°
Longitude
-30.56233°
Altitude
35,808.364 km
Speed
3.073 km/s
True Right ascension
21h 53m 36s
True Declination
-1° 49' 18"
Sunlit
Object was in daylight at epoch
Visualization orbit readout
Latitude
Unknown
Longitude
Unknown
Altitude
Unknown
Speed
Unknown
Apparent Right ascension
Unknown
Apparent Declination
Unknown
Sunlit
N/A
Visualization observer readout
Local Sidereal Time
15:24:56
Azimuth
Unknown
Elevation
Unknown
Doppler factor
Unknown
Orbital elements
Apogee altitude
35,814.893 km
Perigee altitude
35,762.454 km
Semi-major axis
42,166.811 km
Eccentricity
0.00062
Inclination
12.6081°
RAAN
336.5602°
Arg. of periapsis
209.2934°
True anomaly
142.35484°
Mean anomaly
142.3113°
Eccentric anomaly
142.33307°
Mean motion
0.25066 °/min
Orbital period
1,436.2 mins
BSTAR
0
Loading maneuver chart data...
Computing Atmospheric mass density...
Loading historical data...
Loading historical data...
Loading historical data...
Loading historical data...
Loading historical data...
Loading historical data...
Loading historical data...

Documentation

Showing up to 5 results
|